User: anonymous   Login
Location: Wanzleben
(52.0609°N, 11.4408°E)
Time: 06:35:40
(UTC+00:00)
Language:

Lacrosse 4 Rocket - Orbit

View from above orbital plane
View from above orbital plane
View from above satellite
View from above satellite

Ground track
Ground track

The orbit data is extracted from the following two-line orbital elements,

1 26474U 00047B   20339.40823636  .00000516  00000-0  55384-4 0  9994
2 26474  67.9937 327.8602 0055361   5.3815 354.7910 14.96035195104744
Epoch (UTC): 04 December 2020 09:47:51
Eccentricity: 0.0055361
inclination: 67.9937°
perigee height: 540 km
apogee height: 617 km
right ascension of ascending node: 327.8602°
argument of perigee: 5.3815°
revolutions per day: 14.96035195
mean anomaly at epoch: 354.7910°
orbit number at epoch: 10474

The dashed part of the orbit path shows where the satellite is in the earth's shadow,  

DLR